Time,TemperatureF,DewpointF,PressureIn,WindDirection,WindDirectionDegrees,WindSpeedMPH,WindSpeedGustMPH,Humidity,HourlyPrecipIn,Conditions,Clouds,dailyrainin,SoftwareType,DateUTC
2013-12-15 00:00:00,22.8,-4.0,28.82,NE,38,0.0,0.0,30,0.00,CLR,,0.00,WeatherDisplay:10.37,2013-12-15 05:00:00,
2013-12-15 00:05:00,22.8,-4.0,28.82,NE,38,0.0,0.0,30,0.00,CLR,,0.00,WeatherDisplay:10.37,2013-12-15 05:05:00,
2013-12-15 00:10:00,22.8,-4.0,28.82,NE,38,0.0,0.0,30,0.00,CLR,,0.00,WeatherDisplay:10.37,2013-12-15 05:10:00,
2013-12-15 00:15:00,22.8,-4.0,28.82,NE,38,0.0,0.0,30,0.00,CLR,,0.00,WeatherDisplay:10.37,2013-12-15 05:15:00,
2013-12-15 00:35:00,23.2,-2.4,28.82,NE,37,0.0,0.0,32,0.00,CLR,,0.00,WeatherDisplay:10.37,2013-12-15 05:35:00,
2013-12-15 00:40:00,23.2,-2.4,28.82,NE,37,0.0,0.0,32,0.00,CLR,,0.00,WeatherDisplay:10.37,2013-12-15 05:40:00,
2013-12-15 00:45:00,23.4,-2.2,28.82,NE,37,0.0,0.0,32,0.00,CLR,,0.00,WeatherDisplay:10.37,2013-12-15 05:45:00,
2013-12-15 00:55:00,23.4,-2.2,28.82,NE,37,0.0,0.0,32,0.00,CLR,,0.00,WeatherDisplay:10.37,2013-12-15 05:55:00,
2013-12-15 01:00:00,23.4,-2.2,28.82,NE,37,0.0,0.0,32,0.00,CLR,,0.00,WeatherDisplay:10.37,2013-12-15 06:00:00,
2013-12-15 01:10:00,23.4,-2.2,28.82,NE,37,0.0,0.0,32,0.00,CLR,,0.00,WeatherDisplay:10.37,2013-12-15 06:10:00,
2013-12-15 01:20:00,23.5,-2.1,28.82,NE,37,0.0,0.0,32,0.00,CLR,,0.00,WeatherDisplay:10.37,2013-12-15 06:20:00,
2013-12-15 01:25:00,23.5,-2.1,28.82,NE,37,0.0,0.0,32,0.00,CLR,,0.00,WeatherDisplay:10.37,2013-12-15 06:25:00,
2013-12-15 01:35:00,23.5,-2.1,28.82,NE,37,0.0,0.0,32,0.00,CLR,,0.00,WeatherDisplay:10.37,2013-12-15 06:35:00,
2013-12-15 01:40:00,23.5,-2.1,28.82,NE,37,0.0,0.0,32,0.00,CLR,,0.00,WeatherDisplay:10.37,2013-12-15 06:40:00,
2013-12-15 01:45:00,23.7,-1.9,28.82,NE,37,0.0,0.0,32,0.00,CLR,,0.00,WeatherDisplay:10.37,2013-12-15 06:45:00,
2013-12-15 01:55:00,23.7,-1.9,28.82,NE,37,0.0,0.0,32,0.00,CLR,,0.00,WeatherDisplay:10.37,2013-12-15 06:55:00,
2013-12-15 02:00:00,23.7,-1.9,28.82,NE,37,0.0,0.0,32,0.00,CLR,,0.00,WeatherDisplay:10.37,2013-12-15 07:00:00,
2013-12-15 02:05:00,23.9,-1.7,28.82,NE,37,0.0,0.0,32,0.00,CLR,,0.00,WeatherDisplay:10.37,2013-12-15 07:05:00,
2013-12-15 02:10:00,23.9,-1.7,28.82,NE,37,0.0,0.0,32,0.00,CLR,,0.00,WeatherDisplay:10.37,2013-12-15 07:10:00,
2013-12-15 02:20:00,24.1,-1.6,28.82,NE,37,0.0,0.0,32,0.00,CLR,,0.00,WeatherDisplay:10.37,2013-12-15 07:20:00,
2013-12-15 02:30:00,24.1,-1.6,28.82,NE,37,0.0,0.0,32,0.00,CLR,,0.00,WeatherDisplay:10.37,2013-12-15 07:30:00,
2013-12-15 02:35:00,24.3,-1.4,28.82,NE,37,0.0,0.0,32,0.00,CLR,,0.00,WeatherDisplay:10.37,2013-12-15 07:35:00,
2013-12-15 02:45:00,24.3,-1.4,28.82,NE,37,0.0,0.0,32,0.00,CLR,,0.00,WeatherDisplay:10.37,2013-12-15 07:45:00,
2013-12-15 02:55:00,24.4,-1.3,28.82,NE,37,0.0,0.0,32,0.00,CLR,,0.00,WeatherDisplay:10.37,2013-12-15 07:55:00,
2013-12-15 03:05:00,24.4,-1.3,28.82,NE,37,0.0,0.0,32,0.00,CLR,,0.00,WeatherDisplay:10.37,2013-12-15 08:05:00,
2013-12-15 03:15:00,24.6,-1.1,28.82,NE,37,0.0,0.0,32,0.00,CLR,,0.00,WeatherDisplay:10.37,2013-12-15 08:15:00,
2013-12-15 03:25:00,24.8,-0.9,28.82,NE,37,0.0,0.0,32,0.00,CLR,,0.00,WeatherDisplay:10.37,2013-12-15 08:25:00,
2013-12-15 03:35:00,24.8,-0.9,28.82,NE,37,0.0,0.0,32,0.00,CLR,,0.00,WeatherDisplay:10.37,2013-12-15 08:35:00,
2013-12-15 03:45:00,25.2,-0.6,28.82,NE,37,0.0,0.0,32,0.00,CLR,,0.00,WeatherDisplay:10.37,2013-12-15 08:45:00,
2013-12-15 03:50:00,25.2,-0.6,28.82,NE,37,0.0,0.0,32,0.00,CLR,,0.00,WeatherDisplay:10.37,2013-12-15 08:50:00,
2013-12-15 03:55:00,25.3,-0.5,28.82,NE,37,0.0,0.0,32,0.00,CLR,,0.00,WeatherDisplay:10.37,2013-12-15 08:55:00,
2013-12-15 04:05:00,25.8,-0.1,28.82,NE,37,0.0,0.0,32,0.00,CLR,,0.00,WeatherDisplay:10.37,2013-12-15 09:05:00,
2013-12-15 04:15:00,26.1,0.2,28.82,NNE,22,0.0,0.0,32,0.00,CLR,,0.00,WeatherDisplay:10.37,2013-12-15 09:15:00,
2013-12-15 04:20:00,26.1,0.2,28.82,NW,312,5.0,8.0,32,0.00,CLR,,0.00,WeatherDisplay:10.37,2013-12-15 09:20:00,
2013-12-15 04:25:00,26.1,0.2,28.82,NW,311,5.0,8.0,32,0.00,CLR,,0.00,WeatherDisplay:10.37,2013-12-15 09:25:00,
2013-12-15 04:30:00,26.1,-0.5,28.82,NW,314,6.0,10.0,31,0.00,CLR,,0.00,WeatherDisplay:10.37,2013-12-15 09:30:00,
2013-12-15 04:35:00,26.1,-0.5,28.82,NW,310,6.0,9.0,31,0.00,CLR,,0.00,WeatherDisplay:10.37,2013-12-15 09:35:00,
2013-12-15 04:40:00,25.9,-0.7,28.82,NW,314,7.0,8.0,31,0.00,CLR,,0.00,WeatherDisplay:10.37,2013-12-15 09:40:00,
2013-12-15 04:45:00,25.9,-0.7,28.82,NW,311,7.0,8.0,31,0.00,CLR,,0.00,WeatherDisplay:10.37,2013-12-15 09:45:00,
2013-12-15 04:50:00,25.9,-0.7,28.82,NW,307,6.0,11.0,31,0.00,CLR,,0.00,WeatherDisplay:10.37,2013-12-15 09:50:00,
2013-12-15 04:55:00,25.7,-0.8,28.82,WNW,300,8.0,10.0,31,0.00,CLR,,0.00,WeatherDisplay:10.37,2013-12-15 09:55:00,
2013-12-15 05:00:00,25.5,-1.0,28.82,NW,308,6.0,10.0,31,0.00,CLR,,0.00,WeatherDisplay:10.37,2013-12-15 10:00:00,
2013-12-15 05:05:00,25.3,-1.1,28.82,NW,308,7.0,11.0,31,0.00,CLR,,0.00,WeatherDisplay:10.37,2013-12-15 10:05:00,
2013-12-15 05:10:00,25.2,-1.3,28.82,WNW,303,6.0,9.0,31,0.00,CLR,,0.00,WeatherDisplay:10.37,2013-12-15 10:10:00,
2013-12-15 05:15:00,25.0,-2.9,28.85,WNW,302,7.0,12.0,29,0.00,CLR,,0.00,WeatherDisplay:10.37,2013-12-15 10:15:00,
2013-12-15 05:20:00,24.8,-3.0,28.85,WNW,295,7.0,9.0,29,0.00,CLR,,0.00,WeatherDisplay:10.37,2013-12-15 10:20:00,
2013-12-15 05:30:00,24.0,-3.7,28.85,NW,304,7.0,11.0,29,0.00,CLR,,0.00,WeatherDisplay:10.37,2013-12-15 10:30:00,
2013-12-15 05:40:00,23.2,-5.9,28.85,NW,313,7.0,9.0,27,0.00,CLR,,0.00,WeatherDisplay:10.37,2013-12-15 10:40:00,
2013-12-15 05:50:00,22.8,-4.0,28.85,WNW,296,8.0,12.0,30,0.00,CLR,,0.00,WeatherDisplay:10.37,2013-12-15 10:50:00,
2013-12-15 05:55:00,22.6,-4.2,28.85,WNW,300,6.0,12.0,30,0.00,CLR,,0.00,WeatherDisplay:10.37,2013-12-15 10:55:00,
2013-12-15 06:00:00,22.5,-4.4,28.85,WNW,295,6.0,12.0,30,0.00,CLR,,0.00,WeatherDisplay:10.37,2013-12-15 11:00:00,
2013-12-15 06:05:00,22.5,-4.4,28.85,WNW,286,6.0,10.0,30,0.00,CLR,,0.00,WeatherDisplay:10.37,2013-12-15 11:05:00,
2013-12-15 06:10:00,22.3,-4.5,28.85,WNW,283,5.0,10.0,30,0.00,CLR,,0.00,WeatherDisplay:10.37,2013-12-15 11:10:00,
2013-12-15 06:15:00,21.9,-4.8,28.85,WNW,285,6.0,9.0,30,0.00,CLR,,0.00,WeatherDisplay:10.37,2013-12-15 11:15:00,
2013-12-15 06:20:00,21.7,-5.0,28.85,WNW,282,6.0,10.0,30,0.00,CLR,,0.00,WeatherDisplay:10.37,2013-12-15 11:20:00,
2013-12-15 06:25:00,21.4,-5.3,28.85,West,275,6.0,9.0,30,0.00,CLR,,0.00,WeatherDisplay:10.37,2013-12-15 11:25:00,
2013-12-15 06:30:00,21.2,-5.5,28.85,West,278,6.0,12.0,30,0.00,CLR,,0.00,WeatherDisplay:10.37,2013-12-15 11:30:00,
2013-12-15 06:35:00,21.1,-5.5,28.85,West,275,3.0,8.0,30,0.00,CLR,,0.00,WeatherDisplay:10.37,2013-12-15 11:35:00,
2013-12-15 06:40:00,21.0,-5.6,28.85,West,260,5.0,8.0,30,0.00,CLR,,0.00,WeatherDisplay:10.37,2013-12-15 11:40:00,
2013-12-15 06:45:00,21.0,-5.6,28.85,West,266,3.0,7.0,30,0.00,CLR,,0.00,WeatherDisplay:10.37,2013-12-15 11:45:00,
2013-12-15 06:50:00,20.8,-5.8,28.85,West,271,6.0,8.0,30,0.00,CLR,,0.00,WeatherDisplay:10.37,2013-12-15 11:50:00,
2013-12-15 06:55:00,21.0,-5.6,28.85,West,270,5.0,8.0,30,0.00,CLR,,0.00,WeatherDisplay:10.37,2013-12-15 11:55:00,
2013-12-15 07:05:00,21.0,-5.6,28.85,West,259,6.0,8.0,30,0.00,CLR,,0.00,WeatherDisplay:10.37,2013-12-15 12:05:00,
2013-12-15 07:10:00,21.2,-5.5,28.85,WSW,250,7.0,11.0,30,0.00,CLR,,0.00,WeatherDisplay:10.37,2013-12-15 12:10:00,
2013-12-15 07:15:00,21.2,-5.5,28.85,WSW,257,6.0,9.0,30,0.00,CLR,,0.00,WeatherDisplay:10.37,2013-12-15 12:15:00,
2013-12-15 07:20:00,21.2,-5.5,28.85,West,269,7.0,10.0,30,0.00,CLR,,0.00,WeatherDisplay:10.37,2013-12-15 12:20:00,
2013-12-15 07:25:00,21.2,-5.5,28.85,West,275,5.0,8.0,30,0.00,CLR,,0.00,WeatherDisplay:10.37,2013-12-15 12:25:00,
2013-12-15 07:30:00,21.0,-5.6,28.85,WNW,283,7.0,13.0,30,0.00,CLR,,0.00,WeatherDisplay:10.37,2013-12-15 12:30:00,
2013-12-15 07:40:00,20.8,-5.8,28.85,West,276,6.0,12.0,30,0.00,CLR,,0.00,WeatherDisplay:10.37,2013-12-15 12:40:00,
2013-12-15 07:50:00,20.6,-6.0,28.85,West,269,5.0,8.0,30,0.00,CLR,,0.00,WeatherDisplay:10.37,2013-12-15 12:50:00,
2013-12-15 07:55:00,20.5,-6.1,28.85,WSW,256,7.0,13.0,30,0.00,CLR,,0.00,WeatherDisplay:10.37,2013-12-15 12:55:00,
2013-12-15 08:05:00,19.9,-6.6,28.85,WSW,252,8.0,15.0,30,0.00,CLR,,0.00,WeatherDisplay:10.37,2013-12-15 13:05:00,
2013-12-15 08:10:00,19.8,-8.9,28.85,West,264,8.0,14.0,27,0.00,CLR,,0.00,WeatherDisplay:10.37,2013-12-15 13:10:00,
2013-12-15 08:15:00,19.6,-9.1,28.85,West,273,7.0,13.0,27,0.00,CLR,,0.00,WeatherDisplay:10.37,2013-12-15 13:15:00,
2013-12-15 08:25:00,19.6,-6.9,28.85,West,266,6.0,11.0,30,0.00,CLR,,0.00,WeatherDisplay:10.37,2013-12-15 13:25:00,
2013-12-15 08:30:00,19.6,-6.9,28.85,West,276,7.0,12.0,30,0.00,CLR,,0.00,WeatherDisplay:10.37,2013-12-15 13:30:00,
2013-12-15 08:40:00,18.3,-9.4,28.85,WNW,288,10.0,15.0,28,0.00,CLR,,0.00,WeatherDisplay:10.37,2013-12-15 13:40:00,
2013-12-15 08:50:00,18.1,-9.6,28.88,WNW,296,8.0,13.0,28,0.00,CLR,,0.00,WeatherDisplay:10.37,2013-12-15 13:50:00,
2013-12-15 08:55:00,17.4,-10.2,28.88,WNW,286,8.0,15.0,28,0.00,CLR,,0.00,WeatherDisplay:10.37,2013-12-15 13:55:00,
2013-12-15 09:05:00,16.6,-10.9,28.88,WNW,296,12.0,18.0,28,0.00,CLR,,0.00,WeatherDisplay:10.37,2013-12-15 14:05:00,
2013-12-15 09:15:00,16.0,-11.4,28.88,WNW,291,9.0,12.0,28,0.00,CLR,,0.00,WeatherDisplay:10.37,2013-12-15 14:15:00,
2013-12-15 09:25:00,15.1,-13.7,28.88,WNW,288,10.0,16.0,26,0.00,CLR,,0.00,WeatherDisplay:10.37,2013-12-15 14:25:00,
2013-12-15 09:30:00,14.7,-14.1,28.88,WNW,295,10.0,17.0,26,0.00,CLR,,0.00,WeatherDisplay:10.37,2013-12-15 14:30:00,
2013-12-15 09:35:00,14.4,-14.3,28.88,WNW,302,10.0,15.0,26,0.00,CLR,,0.00,WeatherDisplay:10.37,2013-12-15 14:35:00,
2013-12-15 09:40:00,14.5,-14.2,28.88,WNW,302,10.0,14.0,26,0.00,CLR,,0.00,WeatherDisplay:10.37,2013-12-15 14:40:00,
2013-12-15 09:45:00,14.5,-14.2,28.91,WNW,288,10.0,15.0,26,0.00,CLR,,0.00,WeatherDisplay:10.37,2013-12-15 14:45:00,
2013-12-15 09:50:00,14.9,-13.9,28.91,WNW,290,7.0,15.0,26,0.00,CLR,,0.00,WeatherDisplay:10.37,2013-12-15 14:50:00,
2013-12-15 09:55:00,15.1,-13.7,28.91,WNW,285,10.0,15.0,26,0.00,CLR,,0.00,WeatherDisplay:10.37,2013-12-15 14:55:00,
2013-12-15 10:00:00,15.4,-13.4,28.91,WNW,286,7.0,12.0,26,0.00,CLR,,0.00,WeatherDisplay:10.37,2013-12-15 15:00:00,
2013-12-15 10:05:00,15.8,-13.1,28.91,WNW,285,6.0,15.0,26,0.00,CLR,,0.00,WeatherDisplay:10.37,2013-12-15 15:05:00,
2013-12-15 10:10:00,16.2,-12.8,28.91,West,281,8.0,13.0,26,0.00,CLR,,0.00,WeatherDisplay:10.37,2013-12-15 15:10:00,
2013-12-15 10:20:00,15.8,-13.1,28.91,WNW,295,7.0,12.0,26,0.00,CLR,,0.00,WeatherDisplay:10.37,2013-12-15 15:20:00,
2013-12-15 10:30:00,15.6,-13.3,28.91,SW,219,8.0,15.0,26,0.00,CLR,,0.00,WeatherDisplay:10.37,2013-12-15 15:30:00,
2013-12-15 10:40:00,15.8,-13.1,28.91,South,184,7.0,10.0,26,0.00,CLR,,0.00,WeatherDisplay:10.37,2013-12-15 15:40:00,
2013-12-15 10:45:00,15.7,-13.2,28.91,South,184,6.0,8.0,26,0.00,CLR,,0.00,WeatherDisplay:10.37,2013-12-15 15:45:00,
2013-12-15 10:50:00,15.8,-13.1,28.91,South,184,7.0,9.0,26,0.00,CLR,,0.00,WeatherDisplay:10.37,2013-12-15 15:50:00,
2013-12-15 11:00:00,16.3,-12.6,28.91,South,184,8.0,11.0,26,0.00,CLR,,0.00,WeatherDisplay:10.37,2013-12-15 16:00:00,
2013-12-15 11:05:00,16.0,-12.9,28.91,South,184,9.0,13.0,26,0.00,CLR,,0.00,WeatherDisplay:10.37,2013-12-15 16:05:00,
2013-12-15 11:10:00,16.4,-12.5,28.91,South,184,7.0,11.0,26,0.00,CLR,,0.00,WeatherDisplay:10.37,2013-12-15 16:10:00,
2013-12-15 11:15:00,16.3,-12.7,28.91,South,184,9.0,13.0,26,0.00,CLR,,0.00,WeatherDisplay:10.37,2013-12-15 16:15:00,
2013-12-15 11:20:00,16.5,-12.5,28.91,South,184,8.0,12.0,26,0.00,CLR,,0.00,WeatherDisplay:10.37,2013-12-15 16:20:00,
2013-12-15 11:25:00,16.6,-12.4,28.91,South,184,8.0,15.0,26,0.00,CLR,,0.00,WeatherDisplay:10.37,2013-12-15 16:25:00,
2013-12-15 11:30:00,16.6,-12.4,28.91,South,184,9.0,13.0,26,0.00,CLR,,0.00,WeatherDisplay:10.37,2013-12-15 16:30:00,
2013-12-15 11:35:00,16.9,-12.2,28.91,South,184,7.0,12.0,26,0.00,CLR,,0.00,WeatherDisplay:10.37,2013-12-15 16:35:00,
2013-12-15 11:40:00,16.9,-12.2,28.91,SW,224,7.0,17.0,26,0.00,CLR,,0.00,WeatherDisplay:10.37,2013-12-15 16:40:00,
2013-12-15 11:50:00,16.8,-12.3,28.91,WNW,283,6.0,12.0,26,0.00,CLR,,0.00,WeatherDisplay:10.37,2013-12-15 16:50:00,
2013-12-15 11:55:00,16.9,-12.2,28.91,WNW,287,8.0,14.0,26,0.00,CLR,,0.00,WeatherDisplay:10.37,2013-12-15 16:55:00,
2013-12-15 12:05:00,17.9,-12.1,28.91,WNW,293,8.0,12.0,25,0.00,CLR,,0.00,WeatherDisplay:10.37,2013-12-15 17:05:00,
2013-12-15 12:10:00,17.6,-11.5,28.91,WNW,294,7.0,10.0,26,0.00,CLR,,0.00,WeatherDisplay:10.37,2013-12-15 17:10:00,
2013-12-15 12:15:00,17.3,-11.8,28.91,WNW,292,8.0,12.0,26,0.00,CLR,,0.00,WeatherDisplay:10.37,2013-12-15 17:15:00,
2013-12-15 12:20:00,17.5,-11.7,28.91,WNW,293,8.0,9.0,26,0.00,CLR,,0.00,WeatherDisplay:10.37,2013-12-15 17:20:00,
2013-12-15 12:25:00,17.1,-12.0,28.91,WNW,300,7.0,13.0,26,0.00,CLR,,0.00,WeatherDisplay:10.37,2013-12-15 17:25:00,
2013-12-15 12:30:00,17.3,-11.8,28.91,WNW,300,7.0,13.0,26,0.00,CLR,,0.00,WeatherDisplay:10.37,2013-12-15 17:30:00,
2013-12-15 12:35:00,17.6,-11.5,28.91,WNW,297,7.0,8.0,26,0.00,CLR,,0.00,WeatherDisplay:10.37,2013-12-15 17:35:00,
2013-12-15 12:45:00,18.3,-11.7,28.91,WNW,291,6.0,10.0,25,0.00,CLR,,0.00,WeatherDisplay:10.37,2013-12-15 17:45:00,
2013-12-15 12:50:00,17.9,-12.1,28.91,WNW,291,8.0,12.0,25,0.00,CLR,,0.00,WeatherDisplay:10.37,2013-12-15 17:50:00,
2013-12-15 12:55:00,18.3,-11.8,28.91,WNW,287,7.0,10.0,25,0.00,CLR,,0.00,WeatherDisplay:10.37,2013-12-15 17:55:00,
2013-12-15 13:05:00,18.1,-11.9,28.91,WNW,294,7.0,10.0,25,0.00,CLR,,0.00,WeatherDisplay:10.37,2013-12-15 18:05:00,
2013-12-15 13:15:00,17.8,-12.2,28.88,WNW,289,8.0,12.0,25,0.00,CLR,,0.00,WeatherDisplay:10.37,2013-12-15 18:15:00,
2013-12-15 13:20:00,18.3,-11.7,28.88,WNW,292,8.0,9.0,25,0.00,CLR,,0.00,WeatherDisplay:10.37,2013-12-15 18:20:00,
2013-12-15 13:25:00,18.3,-11.7,28.88,WNW,293,6.0,12.0,25,0.00,CLR,,0.00,WeatherDisplay:10.37,2013-12-15 18:25:00,
2013-12-15 13:35:00,18.1,-11.9,28.91,WNW,287,8.0,11.0,25,0.00,CLR,,0.00,WeatherDisplay:10.37,2013-12-15 18:35:00,
2013-12-15 13:40:00,17.9,-12.1,28.91,WNW,287,7.0,9.0,25,0.00,CLR,,0.00,WeatherDisplay:10.37,2013-12-15 18:40:00,
2013-12-15 13:50:00,18.1,-11.9,28.91,West,280,6.0,10.0,25,0.00,CLR,,0.00,WeatherDisplay:10.37,2013-12-15 18:50:00,
2013-12-15 13:55:00,17.8,-12.1,28.91,WNW,284,8.0,10.0,25,0.00,CLR,,0.00,WeatherDisplay:10.37,2013-12-15 18:55:00,
2013-12-15 14:05:00,19.0,-11.1,28.91,WNW,286,6.0,10.0,25,0.00,CLR,,0.00,WeatherDisplay:10.37,2013-12-15 19:05:00,
2013-12-15 14:10:00,18.9,-11.2,28.91,WNW,282,6.0,13.0,25,0.00,CLR,,0.00,WeatherDisplay:10.37,2013-12-15 19:10:00,
2013-12-15 14:15:00,18.5,-11.5,28.91,WNW,283,7.0,10.0,25,0.00,CLR,,0.00,WeatherDisplay:10.37,2013-12-15 19:15:00,
2013-12-15 14:25:00,18.9,-11.2,28.91,West,265,8.0,13.0,25,0.00,CLR,,0.00,WeatherDisplay:10.37,2013-12-15 19:25:00,
2013-12-15 14:30:00,19.1,-11.0,28.91,West,261,7.0,13.0,25,0.00,CLR,,0.00,WeatherDisplay:10.37,2013-12-15 19:30:00,
2013-12-15 14:35:00,19.2,-10.9,28.91,West,265,5.0,12.0,25,0.00,CLR,,0.00,WeatherDisplay:10.37,2013-12-15 19:35:00,
2013-12-15 14:40:00,19.6,-10.6,28.91,WSW,257,8.0,13.0,25,0.00,CLR,,0.00,WeatherDisplay:10.37,2013-12-15 19:40:00,
2013-12-15 14:50:00,19.4,-10.8,28.88,West,267,8.0,13.0,25,0.00,CLR,,0.00,WeatherDisplay:10.37,2013-12-15 19:50:00,
2013-12-15 15:00:00,19.6,-10.6,28.88,West,267,7.0,13.0,25,0.00,CLR,,0.00,WeatherDisplay:10.37,2013-12-15 20:00:00,
2013-12-15 15:05:00,19.6,-10.6,28.88,West,266,7.0,10.0,25,0.00,CLR,,0.00,WeatherDisplay:10.37,2013-12-15 20:05:00,
2013-12-15 15:15:00,19.3,-10.9,28.91,WNW,282,8.0,14.0,25,0.00,CLR,,0.00,WeatherDisplay:10.37,2013-12-15 20:15:00,
2013-12-15 15:20:00,19.2,-10.9,28.91,WNW,284,3.0,10.0,25,0.00,CLR,,0.00,WeatherDisplay:10.37,2013-12-15 20:20:00,
2013-12-15 15:25:00,19.2,-10.9,28.91,West,279,6.0,8.0,25,0.00,CLR,,0.00,WeatherDisplay:10.37,2013-12-15 20:25:00,
2013-12-15 15:30:00,19.4,-10.8,28.91,West,274,5.0,10.0,25,0.00,CLR,,0.00,WeatherDisplay:10.37,2013-12-15 20:30:00,
2013-12-15 15:35:00,19.4,-10.8,28.91,West,272,5.0,10.0,25,0.00,CLR,,0.00,WeatherDisplay:10.37,2013-12-15 20:35:00,
2013-12-15 15:40:00,19.3,-10.9,28.91,West,262,7.0,13.0,25,0.00,CLR,,0.00,WeatherDisplay:10.37,2013-12-15 20:40:00,
2013-12-15 15:45:00,19.2,-10.9,28.91,WSW,253,7.0,13.0,25,0.00,CLR,,0.00,WeatherDisplay:10.37,2013-12-15 20:45:00,
2013-12-15 15:50:00,19.0,-11.1,28.91,WSW,257,6.0,10.0,25,0.00,CLR,,0.00,WeatherDisplay:10.37,2013-12-15 20:50:00,
2013-12-15 15:55:00,18.9,-11.2,28.91,West,259,8.0,10.0,25,0.00,CLR,,0.00,WeatherDisplay:10.37,2013-12-15 20:55:00,
2013-12-15 16:05:00,18.7,-11.4,28.91,WSW,254,6.0,13.0,25,0.00,CLR,,0.00,WeatherDisplay:10.37,2013-12-15 21:05:00,
2013-12-15 16:10:00,18.7,-11.4,28.91,WSW,255,6.0,13.0,25,0.00,CLR,,0.00,WeatherDisplay:10.37,2013-12-15 21:10:00,
2013-12-15 16:15:00,18.5,-11.5,28.91,WSW,252,6.0,12.0,25,0.00,CLR,,0.00,WeatherDisplay:10.37,2013-12-15 21:15:00,
2013-12-15 16:20:00,18.5,-11.5,28.91,WSW,253,8.0,13.0,25,0.00,CLR,,0.00,WeatherDisplay:10.37,2013-12-15 21:20:00,
2013-12-15 16:25:00,18.5,-11.5,28.91,WSW,243,10.0,14.0,25,0.00,CLR,,0.00,WeatherDisplay:10.37,2013-12-15 21:25:00,
2013-12-15 16:30:00,18.5,-11.5,28.91,WSW,246,8.0,13.0,25,0.00,CLR,,0.00,WeatherDisplay:10.37,2013-12-15 21:30:00,
2013-12-15 16:40:00,18.5,-11.5,28.91,WSW,255,7.0,13.0,25,0.00,CLR,,0.00,WeatherDisplay:10.37,2013-12-15 21:40:00,
2013-12-15 16:45:00,18.3,-11.7,28.91,WSW,249,8.0,13.0,25,0.00,CLR,,0.00,WeatherDisplay:10.37,2013-12-15 21:45:00,
2013-12-15 16:50:00,18.1,-11.9,28.91,West,261,7.0,10.0,25,0.00,CLR,,0.00,WeatherDisplay:10.37,2013-12-15 21:50:00,
2013-12-15 16:55:00,18.1,-11.9,28.91,West,262,9.0,13.0,25,0.00,CLR,,0.00,WeatherDisplay:10.37,2013-12-15 21:55:00,
2013-12-15 17:05:00,18.1,-11.9,28.91,WSW,252,7.0,13.0,25,0.00,CLR,,0.00,WeatherDisplay:10.37,2013-12-15 22:05:00,
2013-12-15 17:15:00,18.1,-11.9,28.91,WSW,253,8.0,15.0,25,0.00,CLR,,0.00,WeatherDisplay:10.37,2013-12-15 22:15:00,
2013-12-15 17:25:00,18.1,-11.9,28.91,WSW,249,8.0,13.0,25,0.00,CLR,,0.00,WeatherDisplay:10.37,2013-12-15 22:25:00,
2013-12-15 17:30:00,18.3,-11.7,28.91,WSW,256,6.0,10.0,25,0.00,CLR,,0.00,WeatherDisplay:10.37,2013-12-15 22:30:00,
2013-12-15 17:40:00,18.3,-11.7,28.91,WSW,251,7.0,11.0,25,0.00,CLR,,0.00,WeatherDisplay:10.37,2013-12-15 22:40:00,
2013-12-15 17:50:00,18.3,-11.7,28.94,West,260,7.0,10.0,25,0.00,CLR,,0.00,WeatherDisplay:10.37,2013-12-15 22:50:00,
2013-12-15 17:55:00,18.3,-11.7,28.94,WSW,255,7.0,10.0,25,0.00,CLR,,0.00,WeatherDisplay:10.37,2013-12-15 22:55:00,
2013-12-15 18:00:00,18.3,-11.7,28.94,WSW,257,8.0,12.0,25,0.00,CLR,,0.00,WeatherDisplay:10.37,2013-12-15 23:00:00,
2013-12-15 18:10:00,18.5,-11.5,28.94,West,266,7.0,12.0,25,0.00,CLR,,0.00,WeatherDisplay:10.37,2013-12-15 23:10:00,
2013-12-15 18:20:00,18.5,-11.5,28.94,WSW,254,7.0,12.0,25,0.00,CLR,,0.00,WeatherDisplay:10.37,2013-12-15 23:20:00,
2013-12-15 18:30:00,18.5,-11.5,28.94,WSW,245,8.0,12.0,25,0.00,CLR,,0.00,WeatherDisplay:10.37,2013-12-15 23:30:00,
2013-12-15 18:40:00,18.5,-11.5,28.94,WSW,253,6.0,12.0,25,0.00,CLR,,0.00,WeatherDisplay:10.37,2013-12-15 23:40:00,
2013-12-15 18:45:00,18.7,-11.4,28.94,WSW,255,7.0,10.0,25,0.00,CLR,,0.00,WeatherDisplay:10.37,2013-12-15 23:45:00,
2013-12-15 20:55:00,18.9,-8.9,28.97,West,276,5.0,6.0,28,0.00,CLR,,0.00,WeatherDisplay:10.37,2013-12-16 01:55:00,
2013-12-15 21:00:00,18.9,-8.9,28.97,WNW,283,5.0,8.0,28,0.00,CLR,,0.00,WeatherDisplay:10.37,2013-12-16 02:00:00,
2013-12-15 21:05:00,18.9,-8.9,28.97,WNW,286,3.0,6.0,28,0.00,CLR,,0.00,WeatherDisplay:10.37,2013-12-16 02:05:00,
2013-12-15 21:10:00,18.9,-8.9,28.97,WNW,284,3.0,7.0,28,0.00,CLR,,0.00,WeatherDisplay:10.37,2013-12-16 02:10:00,
2013-12-15 21:15:00,18.9,-8.9,28.97,WNW,295,5.0,6.0,28,0.00,CLR,,0.00,WeatherDisplay:10.37,2013-12-16 02:15:00,
2013-12-15 21:20:00,18.9,-8.9,28.97,WNW,298,5.0,9.0,28,0.00,CLR,,0.00,WeatherDisplay:10.37,2013-12-16 02:20:00,
2013-12-15 21:25:00,18.8,-9.0,28.97,WNW,300,5.0,8.0,28,0.00,CLR,,0.00,WeatherDisplay:10.37,2013-12-16 02:25:00,
2013-12-15 21:35:00,18.5,-9.3,28.97,WNW,302,5.0,8.0,28,0.00,CLR,,0.00,WeatherDisplay:10.37,2013-12-16 02:35:00,
2013-12-15 21:40:00,18.3,-9.4,28.97,WNW,299,5.0,8.0,28,0.00,CLR,,0.00,WeatherDisplay:10.37,2013-12-16 02:40:00,
2013-12-15 21:45:00,18.3,-9.4,28.97,WNW,297,5.0,10.0,28,0.00,CLR,,0.00,WeatherDisplay:10.37,2013-12-16 02:45:00,
2013-12-15 21:50:00,18.3,-9.4,28.97,WNW,294,3.0,8.0,28,0.00,CLR,,0.00,WeatherDisplay:10.37,2013-12-16 02:50:00,
2013-12-15 22:00:00,18.1,-9.6,28.97,NW,305,5.0,6.0,28,0.00,CLR,,0.00,WeatherDisplay:10.37,2013-12-16 03:00:00,
2013-12-15 22:10:00,18.1,-9.6,28.97,WNW,289,3.0,5.0,28,0.00,CLR,,0.00,WeatherDisplay:10.37,2013-12-16 03:10:00,
2013-12-15 22:20:00,18.0,-9.7,28.97,WNW,287,3.0,6.0,28,0.00,CLR,,0.00,WeatherDisplay:10.37,2013-12-16 03:20:00,
2013-12-15 22:25:00,18.0,-9.7,28.97,WNW,294,3.0,6.0,28,0.00,CLR,,0.00,WeatherDisplay:10.37,2013-12-16 03:25:00,
2013-12-15 22:30:00,18.0,-9.7,28.97,WNW,301,3.0,6.0,28,0.00,CLR,,0.00,WeatherDisplay:10.37,2013-12-16 03:30:00,
2013-12-15 22:40:00,18.0,-9.7,28.97,WNW,299,5.0,6.0,28,0.00,CLR,,0.00,WeatherDisplay:10.37,2013-12-16 03:40:00,
2013-12-15 22:45:00,18.0,-9.7,28.97,WNW,300,3.0,6.0,28,0.00,CLR,,0.00,WeatherDisplay:10.37,2013-12-16 03:45:00,
2013-12-15 22:55:00,18.0,-9.7,28.97,WNW,300,3.0,4.0,28,0.00,CLR,,0.00,WeatherDisplay:10.37,2013-12-16 03:55:00,
2013-12-15 23:00:00,18.0,-9.7,28.97,NW,308,3.0,6.0,28,0.00,CLR,,0.00,WeatherDisplay:10.37,2013-12-16 04:00:00,
2013-12-15 23:05:00,18.0,-9.7,28.97,NW,310,3.0,6.0,28,0.00,CLR,,0.00,WeatherDisplay:10.37,2013-12-16 04:05:00,
2013-12-15 23:10:00,18.0,-9.7,28.97,WNW,303,3.0,6.0,28,0.00,CLR,,0.00,WeatherDisplay:10.37,2013-12-16 04:10:00,
2013-12-15 23:15:00,18.0,-9.7,29.00,WNW,299,3.0,6.0,28,0.00,CLR,,0.00,WeatherDisplay:10.37,2013-12-16 04:15:00,
2013-12-15 23:20:00,18.1,-9.6,29.00,WNW,296,3.0,6.0,28,0.00,CLR,,0.00,WeatherDisplay:10.37,2013-12-16 04:20:00,
2013-12-15 23:25:00,18.1,-9.6,28.99,WNW,299,3.0,6.0,28,0.00,CLR,,0.00,WeatherDisplay:10.37,2013-12-16 04:25:00,
2013-12-15 23:30:00,18.1,-9.6,28.97,WNW,295,3.0,6.0,28,0.00,CLR,,0.00,WeatherDisplay:10.37,2013-12-16 04:30:00,
2013-12-15 23:35:00,18.1,-9.6,28.97,WNW,298,2.0,5.0,28,0.00,CLR,,0.00,WeatherDisplay:10.37,2013-12-16 04:35:00,
2013-12-15 23:45:00,18.1,-9.6,29.00,WNW,290,3.0,8.0,28,0.00,CLR,,0.00,WeatherDisplay:10.37,2013-12-16 04:45:00,
2013-12-15 23:50:00,18.1,-9.6,29.00,WNW,292,5.0,10.0,28,0.00,CLR,,0.00,WeatherDisplay:10.37,2013-12-16 04:50:00,